Temp
13 13 13 13 13 12 12 12 12 12 12 12 12 12 12 12 12 11 12 12 12 12 12 12 11 11 11 11 11 11 11 11 11 11 11 11 11 11 11 11 11 11 10 10 11 11 11 11 11 11 11 11 11 11 11 11 10 10 10 10 10 9 9 9 9 9 9 9 9
13 13 13 13 13 12 12 12 12 12 12 12 12 12 12 12 12 11 11 12 12 12 11 11 11 11 11 11 11 11 11 11 10 11 11 11 11 11 11 11 11 10 10 10 11 11 11 11 11 11 11 11 11 10 10 10 10 10 10 10 9 9 9 9 9 9 8 8 8
13 13 13 12 12 12 12 12 12 12 12 12 12 12 12 12 11 11 11 11 11 11 11 11 11 11 11 11 11 11 11 11 10 10 10 10 10 10 10 10 10 10 10 10 11 11 11 11 11 11 10 10 10 10 10 10 10 9 9 9 9 9 9 9 9 9 9 9 9
13 13 12 12 12 12 12 12 12 11 11 11 11 12 12 11 11 11 11 11 11 11 11 11 11 11 11 11 11 11 11 10 10 10 10 10 10 10 10 10 10 10 10 10 10 10 10 10 10 10 10 10 10 10 10 10 10 10 10 10 9 9 9 9 9 9 9 9 9
12 12 12 12 12 12 12 12 12 11 11 11 11 11 11 11 11 11 11 11 11 11 11 10 11 11 11 11 11 11 10 10 10 10 10 10 10 10 10 10 10 10 10 10 10 10 10 10 10 10 10 10 10 10 10 10 10 10 10 10 10 9 10 10 10 10 9 9 9
12 12 12 12 12 12 12 12 12 11 11 11 11 11 11 11 11 11 11 11 11 10 10 10 11 11 11 11 10 10 10 10 10 10 10 10 10 10 10 10 10 10 10 10 10 10 10 10 10 10 10 10 10 10 10 10 10 10 10 9 9 9 10 10 9 9 9 9 8
12 12 12 12 12 12 12 12 12 11 11 11 11 11 11 11 11 11 11 11 10 10 10 10 11 11 11 10 10 10 10 10 10 10 10 10 10 10 10 10 10 10 10 10 10 10 10 11 11 11 10 10 10 10 10 10 10 10 9 9 9 9 9 9 9 8 8 8 8
12 12 12 12 12 12 12 12 11 11 11 11 11 11 11 11 11 11 11 10 10 10 10 11 11 11 10 10 10 10 10 10 10 10 10 10 10 9 9 9 9 9 9 10 10 10 10 11 11 11 10 10 10 10 10 10 10 10 9 9 9 9 9 9 8 8 8 8 8
12 12 12 12 12 12 12 12 11 11 11 11 11 11 11 11 11 10 10 10 10 10 11 11 11 11 10 10 10 10 10 10 10 10 10 10 10 10 10 10 10 10 10 10 10 10 10 10 10 10 10 10 10 10 10 10 10 9 9 9 9 8 8 8 8 8 8 8 8
12 12 12 11 11 11 12 11 11 11 11 11 11 11 11 11 10 10 10 10 10 10 11 11 11 11 10 10 11 11 11 10 10 10 10 10 10 10 10 10 10 10 10 10 10 10 10 10 10 9 9 9 9 9 9 9 9 9 9 9 8 8 8 8 8 8 8 8 7
12 12 11 11 11 11 11 11 11 11 11 11 11 11 11 10 10 10 10 10 11 11 11 11 11 11 11 11 11 11 11 11 11 10 10 10 10 10 10 10 10 10 10 10 10 10 10 10 9 9 9 9 9 9 9 9 9 9 8 8 8 8 8 8 7 7 7 7 7
12 12 11 11 11 11 11 11 11 11 11 11 11 11 10 10 10 10 10 11 10 10 10 10 10 11 11 11 11 11 11 10 10 10 10 10 10 10 10 10 10 10 10 10 10 10 10 10 9 9 9 9 9 9 9 8 8 8 8 8 8 7 7 7 7 7 7 7 7
12 12 11 11 11 11 11 11 11 11 11 11 10 10 10 10 10 10 10 10 10 10 10 10 10 11 11 11 11 10 10 10 10 10 10 10 10 10 10 10 10 10 10 10 10 10 10 9 9 9 9 9 9 9 8 8 8 8 8 7 7 7 6 6 6 6 6 6 6
12 12 11 11 11 11 11 11 11 11 11 10 10 10 11 10 10 10 10 10 10 10 10 10 10 10 11 11 10 10 10 10 10 10 10 10 10 10 10 10 10 10 10 10 10 9 9 9 9 9 9 9 9 8 8 8 8 7 7 7 7 6 6 6 6 6 6 6 6
12 11 11 11 11 11 11 11 11 11 10 11 11 11 11 10 10 10 10 10 10 10 10 10 10 10 10 10 10 10 10 10 10 10 10 10 10 10 10 10 10 10 10 9 9 9 9 9 9 9 9 8 8 8 8 8 7 7 7 7 7 7 7 6 6 6 6 6 6
11 11 11 11 11 11 11 11 10 11 11 11 11 11 10 10 10 10 10 10 10 10 10 10 10 10 10 10 10 10 10 10 10 10 10 10 10 10 10 10 10 9 9 9 9 9 9 9 9 8 8 8 8 8 8 8 7 7 7 7 7 6 6 6 6 6 6 6 5
11 11 11 11 11 11 10 10 11 11 11 11 11 10 10 10 10 10 10 10 10 10 10 10 10 10 10 10 10 10 10 10 10 10 10 10 10 9 9 9 9 9 9 9 9 9 8 8 8 8 8 8 8 8 7 7 7 7 6 6 6 6 6 6 6 5 5 5 5
11 11 11 11 10 10 10 11 11 11 10 10 10 10 10 10 10 10 10 10 10 10 10 10 10 10 10 10 10 9 10 10 10 10 10 10 9 9 9 9 9 9 9 8 8 8 8 8 8 8 8 8 7 7 7 7 6 6 6 6 6 6 5 5 5 5 5 5 4
11 11 11 10 10 10 10 11 10 10 10 10 10 10 10 10 10 10 10 10 10 10 10 10 10 10 10 9 9 9 9 9 10 10 9 9 9 9 9 9 8 8 8 8 8 8 8 8 8 7 7 7 7 7 7 6 6 6 6 5 5 5 5 5 5 4 4 4 4
11 10 10 10 10 10 10 10 10 10 10 10 10 10 10 10 10 10 10 10 10 10 10 10 10 10 9 9 9 9 9 9 9 9 9 9 9 9 8 8 8 8 8 8 8 8 8 7 7 7 7 7 7 7 6 6 6 6 5 5 5 5 5 4 4 4 4 4 4
10 10 10 10 10 10 10 10 10 10 10 10 10 10 10 10 10 10 10 10 10 9 9 9 10 9 9 9 9 9 9 9 9 9 9 9 9 8 8 8 8 8 8 7 7 7 7 7 7 7 7 6 6 6 6 6 6 5 5 5 5 5 4 4 4 4 4 4 4
10 10 10 10 10 10 10 10 10 10 10 10 10 10 10 10 10 10 10 10 9 9 9 9 9 9 9 9 9 9 9 9 9 9 9 8 8 8 8 8 7 7 7 7 7 7 6 6 6 6 6 6 6 6 6 6 5 5 5 5 5 4 4 4 4 4 4 4 4
10 10 10 10 10 10 10 10 10 10 10 10 10 10 10 10 10 10 10 9 9 9 9 9 9 9 9 9 9 9 9 9 9 8 8 8 8 8 8 7 7 7 7 7 6 6 6 6 6 6 6 6 6 6 5 5 5 5 5 4 4 4 4 4 4 4 4 4 4
10 10 10 10 10 10 10 10 10 10 10 10 10 10 10 10 10 9 9 9 9 9 9 9 9 9 9 9 9 9 9 8 8 8 8 8 8 8 7 7 7 7 7 6 6 5 5 5 5 5 5 5 5 5 5 5 5 5 4 4 4 4 4 4 4 4 4 4 3
10 10 10 10 10 10 10 10 10 10 10 9 9 9 9 9 9 9 9 9 9 9 9 9 9 9 9 9 8 8 8 8 8 8 8 8 7 7 7 7 7 6 6 5 5 5 5 5 5 5 5 5 5 5 5 5 5 4 4 4 5 4 4 4 4 4 4 3 3
10 10 10 10 10 10 10 10 10 9 9 9 9 9 9 9 9 9 9 9 9 9 9 9 9 9 8 8 8 8 8 8 8 8 8 8 7 7 7 7 6 6 6 6 5 6 6 5 5 5 5 5 5 5 5 5 5 4 5 5 4 4 4 4 3 3 2 2 2
10 10 10 10 9 9 9 9 9 9 9 9 9 9 9 9 9 9 9 9 9 9 9 9 8 8 8 8 8 8 8 7 7 7 7 7 7 7 7 7 6 6 6 6 6 6 5 5 5 5 5 5 5 5 5 5 5 5 5 4 4 4 4 3 3 2 1 1 1
10 10 10 9 9 9 9 9 9 9 9 9 9 9 9 9 9 9 9 9 9 9 9 8 8 8 8 8 8 7 7 7 7 7 7 7 7 7 7 7 6 6 6 6 6 5 5 5 5 5 5 5 5 5 5 5 5 4 4 4 4 3 3 3 2 2 1 1 0
10 10 9 9 9 9 9 9 9 9 9 9 9 9 9 9 8 8 8 9 9 8 8 8 8 8 8 8 7 7 7 7 7 7 7 7 7 7 7 6 6 6 6 6 5 5 5 5 5 5 5 5 5 5 5 5 4 4 4 4 3 3 3 2 2 1 1 1 1
9 9 9 9 9 9 9 9 8 9 9 9 9 8 8 8 8 9 9 8 8 8 8 8 8 7 7 7 7 7 7 7 7 7 7 7 7 7 6 6 6 6 6 5 5 5 5 5 5 5 5 5 5 5 5 5 4 4 4 4 3 3 3 2 2 2 1 1 1
9 9 9 9 9 9 9 8 8 9 9 9 8 8 8 8 8 9 8 8 8 8 8 7 7 7 7 7 7 7 7 8 7 7 7 7 7 7 6 6 6 6 5 5 5 5 5 5 5 5 5 5 5 5 4 4 4 4 4 4 4 3 3 3 2 2 2 2 1
9 9 9 9 9 9 8 8 8 8 9 9 8 8 8 8 8 8 8 8 8 7 7 7 7 7 7 7 7 7 8 7 7 7 7 7 7 7 6 6 6 5 5 5 5 5 5 5 5 5 5 5 4 4 4 4 4 4 4 4 4 3 3 3 2 2 2 1 1
9 9 9 9 9 9 8 8 8 8 9 9 8 8 8 8 8 8 8 7 7 7 7 7 7 7 7 7 7 7 7 7 7 7 6 6 6 6 6 6 6 5 5 5 5 5 5 5 5 5 5 4 4 4 4 4 4 4 4 4 3 3 3 2 2 1 1 1 0
9 9 9 9 9 9 8 8 8 8 8 8 8 8 8 8 8 7 7 7 7 7 7 7 7 7 7 7 7 7 7 7 7 7 6 6 6 6 6 6 6 5 5 5 5 5 5 5 5 5 4 4 4 4 4 4 4 4 4 3 3 3 2 2 1 1 0 0 -0
9 9 9 9 9 9 8 8 8 8 8 8 8 8 8 8 7 7 7 7 7 7 7 7 7 7 7 7 7 7 7 7 7 6 6 6 6 6 6 6 6 5 5 5 5 5 5 5 5 5 5 4 4 4 4 4 4 4 3 3 3 2 2 1 1 0 -0 -0 -1
9 9 9 9 9 9 8 8 8 8 8 8 8 8 7 7 7 7 7 7 7 7 7 7 7 7 7 7 7 7 7 7 6 6 6 6 6 6 6 6 5 5 5 5 5 5 5 5 5 5 5 4 4 4 4 4 4 4 3 3 2 2 1 1 1 0 -0 -1 -1
9 9 9 9 9 9 8 8 8 8 8 8 8 7 7 7 7 7 7 7 7 7 7 7 7 7 7 7 7 6 6 6 6 6 5 5 5 6 6 6 5 5 5 5 4 4 4 4 4 4 4 4 4 4 4 4 3 3 3 2 2 2 1 1 0 -0 -1 -1 -1
9 9 9 9 9 8 8 8 8 8 8 8 7 7 7 7 7 7 7 7 7 8 7 7 7 7 7 7 6 6 6 6 6 6 5 5 5 5 5 5 5 5 5 5 4 4 4 4 4 4 4 4 4 4 3 3 3 3 2 2 2 1 1 0 -0 -1 -1 -1 -2
9 9 9 9 9 8 8 8 8 8 8 8 7 7 7 7 7 7 7 7 7 8 8 7 7 7 6 6 6 6 5 5 5 5 5 5 5 5 5 5 5 5 5 4 4 4 4 4 4 4 4 4 4 3 3 3 2 2 2 1 1 1 0 -0 -1 -1 -2 -2 -2
9 9 9 9 9 8 8 8 8 8 8 8 8 8 8 7 7 7 7 7 7 7 8 7 7 6 6 6 6 6 6 5 5 5 5 5 5 5 5 5 5 5 4 4 4 4 4 4 4 4 3 3 3 3 2 2 2 1 1 0 0 0 -0 -1 -2 -2 -2 -2 -2
8 9 9 9 9 8 8 8 8 8 8 8 8 8 7 7 7 7 7 7 7 7 7 7 6 6 6 6 6 6 6 6 5 5 5 5 5 5 5 5 5 4 4 4 4 4 4 4 4 3 3 3 3 2 2 1 1 1 1 -0 -0 -1 -1 -2 -2 -2 -3 -3 -3
Height
1462 1463 1464 1465 1466 1467 1469 1469 1471 1472 1473 1474 1476 1477 1479 1479 1480 1481 1482 1483 1484 1485 1486 1487 1488 1489 1489 1490 1491 1492 1494 1495 1496 1497 1498 1499 1501 1503 1504 1505 1506 1507 1507 1508 1508 1509 1511 1512 1513 1514 1514 1514 1515 1515 1516 1516 1516 1516 1516 1516 1515 1515 1515 1515 1515 1515 1516 1516 1516
1460 1462 1463 1464 1465 1467 1468 1469 1470 1471 1473 1474 1475 1477 1478 1479 1480 1481 1482 1483 1484 1485 1486 1487 1487 1488 1489 1490 1491 1492 1493 1494 1495 1496 1498 1499 1500 1502 1503 1504 1505 1505 1506 1506 1508 1509 1510 1511 1512 1512 1513 1514 1514 1514 1514 1514 1514 1514 1514 1514 1514 1514 1514 1514 1515 1515 1515 1515 1515
1459 1461 1462 1463 1464 1466 1467 1468 1469 1470 1472 1473 1475 1476 1478 1479 1479 1480 1481 1483 1484 1485 1485 1486 1487 1488 1489 1489 1490 1491 1493 1494 1495 1496 1497 1499 1500 1501 1503 1503 1504 1504 1505 1506 1507 1508 1509 1510 1511 1511 1512 1513 1513 1513 1513 1513 1513 1513 1514 1514 1514 1514 1514 1514 1514 1514 1514 1514 1514
1458 1460 1461 1462 1463 1464 1466 1467 1469 1470 1471 1473 1474 1476 1477 1478 1479 1480 1481 1482 1484 1484 1485 1486 1486 1487 1488 1489 1490 1491 1492 1493 1494 1496 1497 1498 1499 1501 1501 1502 1503 1504 1504 1505 1506 1507 1508 1509 1509 1510 1511 1511 1512 1512 1512 1512 1512 1512 1513 1513 1513 1512 1512 1512 1513 1513 1513 1513 1513
1457 1459 1460 1461 1462 1464 1465 1466 1468 1469 1471 1473 1474 1476 1477 1478 1479 1480 1481 1482 1483 1484 1485 1485 1486 1487 1488 1489 1490 1491 1492 1493 1494 1495 1497 1498 1499 1500 1501 1502 1503 1503 1504 1504 1505 1506 1507 1508 1508 1509 1509 1510 1510 1511 1511 1511 1511 1511 1512 1512 1512 1512 1512 1512 1513 1513 1513 1513 1512
1456 1458 1459 1460 1462 1463 1464 1466 1468 1469 1470 1472 1474 1475 1476 1477 1478 1479 1481 1482 1483 1484 1484 1485 1485 1486 1487 1489 1489 1490 1491 1493 1494 1495 1496 1497 1498 1499 1500 1501 1502 1503 1503 1504 1504 1505 1506 1506 1507 1508 1509 1509 1510 1510 1510 1510 1510 1511 1511 1511 1511 1511 1512 1512 1512 1512 1512 1511 1511
1455 1457 1459 1460 1461 1462 1464 1466 1467 1469 1470 1472 1473 1474 1476 1477 1478 1479 1481 1482 1483 1483 1484 1484 1485 1486 1487 1488 1489 1490 1491 1492 1493 1494 1496 1497 1498 1499 1500 1501 1502 1502 1502 1503 1504 1504 1505 1505 1507 1508 1509 1509 1509 1509 1509 1510 1510 1510 1510 1510 1511 1511 1511 1511 1511 1511 1510 1510 1509
1455 1456 1458 1459 1460 1462 1463 1465 1467 1468 1470 1471 1473 1474 1475 1476 1478 1479 1481 1482 1482 1482 1483 1484 1484 1486 1487 1487 1489 1490 1491 1492 1493 1494 1495 1496 1498 1499 1499 1500 1501 1501 1502 1502 1503 1504 1504 1505 1506 1508 1508 1508 1508 1509 1509 1509 1509 1509 1510 1510 1510 1510 1510 1510 1510 1510 1509 1509 1508
1454 1456 1457 1458 1459 1461 1463 1464 1466 1468 1469 1471 1472 1474 1475 1476 1478 1479 1480 1481 1481 1481 1482 1483 1484 1485 1486 1487 1488 1489 1490 1492 1493 1494 1495 1496 1497 1498 1498 1499 1500 1500 1501 1502 1503 1504 1504 1505 1506 1507 1507 1507 1508 1508 1508 1509 1509 1509 1509 1509 1509 1509 1509 1509 1509 1508 1508 1507 1507
1453 1455 1456 1458 1459 1461 1462 1464 1466 1467 1469 1470 1472 1473 1475 1477 1478 1479 1479 1480 1480 1481 1482 1483 1484 1485 1486 1487 1488 1489 1490 1492 1493 1494 1495 1495 1496 1497 1498 1499 1500 1501 1502 1503 1503 1504 1504 1504 1505 1505 1506 1507 1507 1507 1508 1508 1508 1508 1509 1509 1509 1508 1508 1508 1507 1507 1506 1506 1506
1452 1454 1455 1457 1458 1460 1462 1464 1465 1467 1469 1470 1472 1473 1475 1476 1477 1478 1479 1479 1480 1481 1482 1483 1484 1484 1485 1487 1488 1489 1490 1492 1493 1494 1494 1495 1496 1497 1499 1500 1501 1501 1502 1502 1503 1503 1504 1504 1504 1505 1505 1506 1506 1507 1507 1507 1507 1508 1508 1508 1507 1507 1507 1506 1506 1506 1505 1505 1505
1451 1453 1454 1456 1458 1459 1461 1463 1465 1466 1468 1470 1471 1473 1474 1475 1476 1477 1478 1479 1480 1481 1482 1482 1483 1484 1485 1487 1488 1489 1490 1492 1492 1493 1494 1494 1496 1497 1499 1500 1500 1501 1501 1502 1502 1503 1503 1504 1504 1505 1505 1505 1506 1506 1506 1506 1506 1507 1507 1506 1506 1506 1505 1505 1505 1505 1504 1504 1504
1451 1453 1454 1456 1457 1459 1461 1463 1464 1466 1468 1470 1471 1472 1473 1474 1476 1477 1478 1479 1479 1480 1481 1482 1483 1484 1485 1486 1488 1489 1490 1491 1491 1492 1494 1495 1497 1498 1499 1499 1500 1500 1501 1501 1502 1502 1503 1504 1504 1504 1505 1505 1505 1505 1505 1505 1505 1505 1505 1505 1505 1504 1504 1504 1504 1504 1504 1503 1503
1450 1452 1454 1455 1457 1459 1460 1462 1464 1466 1468 1469 1470 1471 1472 1474 1476 1477 1477 1478 1478 1479 1480 1481 1482 1484 1485 1486 1487 1488 1489 1490 1491 1492 1494 1496 1497 1498 1499 1499 1499 1500 1500 1501 1501 1502 1503 1503 1504 1504 1504 1504 1505 1504 1504 1504 1504 1504 1504 1504 1504 1504 1504 1503 1503 1503 1502 1502 1501
1450 1452 1453 1455 1456 1458 1460 1462 1464 1466 1467 1468 1469 1470 1472 1474 1474 1475 1475 1476 1477 1478 1479 1481 1482 1484 1484 1486 1487 1488 1489 1490 1492 1493 1495 1496 1497 1498 1498 1498 1499 1499 1500 1500 1501 1502 1502 1503 1503 1504 1504 1504 1504 1504 1503 1503 1503 1503 1503 1503 1503 1503 1503 1502 1502 1502 1501 1501 1500
1449 1451 1453 1454 1456 1458 1460 1462 1464 1465 1466 1467 1468 1470 1471 1472 1473 1474 1474 1475 1477 1478 1479 1481 1482 1483 1484 1486 1487 1489 1490 1491 1492 1494 1494 1495 1496 1497 1497 1498 1498 1499 1499 1500 1501 1501 1502 1502 1503 1503 1503 1503 1503 1503 1503 1503 1503 1503 1502 1502 1502 1502 1502 1502 1501 1501 1500 1500 1499
1449 1451 1453 1454 1456 1458 1460 1461 1462 1463 1464 1466 1468 1469 1470 1471 1472 1473 1474 1475 1477 1478 1479 1481 1482 1484 1485 1486 1488 1489 1490 1491 1492 1493 1494 1494 1495 1496 1496 1497 1498 1498 1499 1499 1500 1501 1501 1502 1502 1502 1502 1502 1502 1502 1502 1502 1502 1502 1502 1502 1501 1501 1501 1501 1500 1500 1499 1499 1499
1449 1451 1453 1454 1456 1458 1459 1460 1461 1462 1464 1465 1466 1468 1469 1470 1471 1473 1474 1476 1477 1479 1480 1481 1483 1484 1485 1486 1488 1489 1489 1490 1491 1492 1493 1494 1494 1495 1496 1497 1497 1498 1499 1499 1500 1500 1500 1501 1501 1501 1501 1501 1501 1501 1501 1501 1501 1501 1501 1501 1501 1500 1500 1500 1499 1499 1499 1498 1498
1449 1451 1453 1454 1455 1457 1458 1459 1460 1462 1463 1464 1465 1467 1468 1469 1471 1473 1474 1476 1478 1479 1480 1481 1483 1484 1485 1486 1487 1488 1489 1490 1491 1492 1493 1494 1494 1495 1496 1496 1497 1498 1498 1499 1499 1499 1500 1500 1500 1500 1500 1500 1500 1500 1500 1500 1500 1500 1500 1500 1500 1500 1499 1499 1499 1499 1498 1498 1498
1449 1450 1452 1453 1454 1456 1457 1458 1459 1460 1462 1463 1464 1466 1468 1470 1472 1473 1475 1476 1478 1479 1480 1481 1482 1484 1485 1486 1487 1488 1489 1490 1491 1491 1492 1493 1494 1495 1495 1496 1497 1497 1498 1498 1499 1499 1499 1499 1499 1499 1499 1499 1499 1499 1499 1499 1499 1499 1499 1499 1499 1499 1499 1499 1499 1498 1498 1498 1497
1449 1450 1452 1453 1454 1455 1456 1457 1458 1459 1461 1463 1464 1467 1469 1471 1472 1474 1475 1476 1478 1479 1480 1481 1482 1483 1484 1486 1486 1487 1489 1489 1490 1491 1492 1493 1494 1495 1495 1496 1496 1497 1497 1498 1498 1498 1498 1499 1499 1499 1499 1499 1499 1499 1499 1499 1499 1499 1499 1499 1499 1499 1499 1498 1498 1498 1498 1497 1497
1448 1449 1450 1451 1452 1453 1454 1456 1457 1459 1461 1463 1465 1468 1469 1471 1473 1474 1475 1476 1478 1479 1480 1481 1482 1483 1484 1485 1486 1487 1489 1489 1491 1492 1492 1493 1494 1494 1495 1495 1496 1496 1496 1497 1497 1497 1498 1498 1498 1498 1498 1498 1498 1498 1498 1498 1498 1498 1498 1498 1498 1498 1498 1498 1498 1498 1497 1497 1497
1446 1447 1448 1449 1450 1452 1454 1456 1458 1460 1462 1464 1466 1468 1470 1471 1472 1474 1474 1476 1477 1478 1479 1481 1482 1483 1484 1485 1487 1488 1489 1489 1490 1491 1492 1493 1493 1494 1494 1494 1495 1495 1496 1496 1497 1497 1497 1497 1497 1497 1497 1497 1497 1497 1497 1498 1498 1498 1498 1498 1498 1498 1498 1498 1497 1497 1497 1496 1496
1443 1444 1446 1448 1450 1452 1454 1457 1459 1461 1463 1465 1467 1469 1470 1471 1472 1473 1474 1475 1477 1478 1479 1481 1482 1483 1484 1486 1487 1488 1489 1489 1490 1491 1491 1492 1493 1493 1494 1494 1494 1495 1495 1496 1496 1496 1496 1497 1497 1497 1497 1497 1497 1497 1497 1497 1497 1498 1498 1498 1498 1498 1497 1497 1497 1497 1496 1496 1495
1442 1444 1446 1448 1451 1453 1455 1457 1459 1462 1464 1465 1466 1468 1469 1470 1471 1473 1474 1475 1477 1478 1479 1481 1482 1483 1484 1486 1487 1488 1488 1489 1489 1490 1491 1492 1492 1493 1493 1494 1494 1494 1495 1495 1496 1496 1496 1496 1496 1496 1496 1496 1497 1497 1497 1497 1497 1497 1497 1497 1497 1497 1497 1496 1496 1496 1495 1495 1495
1443 1445 1447 1449 1451 1454 1456 1458 1460 1462 1463 1464 1466 1468 1469 1470 1471 1473 1474 1475 1477 1478 1479 1481 1482 1483 1484 1485 1486 1487 1488 1489 1489 1490 1490 1491 1492 1492 1493 1493 1494 1494 1494 1495 1495 1495 1496 1496 1496 1496 1496 1496 1496 1496 1497 1497 1497 1497 1497 1497 1497 1497 1496 1496 1495 1495 1494 1494 1494
1443 1445 1448 1450 1452 1454 1456 1458 1460 1461 1463 1464 1466 1467 1469 1470 1472 1473 1474 1475 1477 1478 1479 1480 1482 1483 1484 1485 1485 1486 1487 1488 1489 1489 1490 1491 1491 1492 1492 1493 1493 1494 1494 1494 1495 1495 1495 1496 1496 1496 1496 1496 1496 1496 1496 1497 1497 1497 1497 1497 1496 1496 1496 1495 1495 1495 1494 1494 1493
1444 1446 1448 1450 1453 1454 1456 1458 1459 1461 1463 1464 1465 1467 1469 1470 1472 1473 1474 1476 1477 1478 1479 1480 1481 1482 1483 1484 1485 1486 1487 1487 1488 1489 1490 1490 1491 1491 1492 1492 1493 1494 1494 1494 1495 1495 1495 1495 1496 1496 1496 1496 1496 1496 1496 1496 1497 1496 1496 1496 1496 1496 1495 1495 1495 1494 1494 1493 1492
1444 1446 1449 1450 1452 1454 1456 1458 1459 1461 1463 1464 1465 1467 1469 1471 1472 1474 1475 1476 1477 1478 1479 1480 1481 1482 1483 1483 1484 1485 1486 1487 1488 1489 1489 1490 1490 1491 1492 1492 1493 1493 1494 1494 1494 1495 1495 1495 1495 1496 1496 1496 1496 1496 1496 1496 1496 1496 1496 1496 1496 1495 1495 1495 1494 1494 1494 1493 1492
1444 1446 1448 1450 1452 1454 1456 1458 1459 1461 1462 1464 1465 1467 1469 1471 1473 1474 1475 1476 1477 1478 1479 1480 1480 1481 1482 1483 1484 1485 1486 1487 1488 1489 1489 1490 1490 1491 1491 1492 1493 1493 1494 1494 1494 1495 1495 1495 1495 1495 1496 1496 1496 1496 1496 1496 1496 1496 1495 1495 1495 1495 1495 1494 1494 1494 1493 1493 1492
1444 1446 1448 1450 1452 1454 1456 1458 1459 1461 1462 1464 1466 1467 1469 1471 1473 1474 1475 1476 1477 1478 1479 1479 1480 1481 1481 1482 1484 1485 1486 1487 1488 1488 1489 1489 1490 1491 1491 1492 1493 1493 1494 1494 1494 1495 1495 1495 1495 1495 1495 1495 1495 1495 1495 1495 1495 1495 1495 1495 1494 1494 1494 1494 1494 1493 1493 1492 1492
1444 1446 1448 1450 1452 1454 1455 1457 1459 1461 1463 1464 1466 1468 1469 1471 1472 1474 1475 1476 1477 1478 1478 1479 1480 1480 1481 1482 1484 1484 1486 1486 1487 1488 1489 1489 1490 1491 1491 1492 1493 1493 1494 1494 1494 1494 1495 1495 1495 1495 1495 1495 1495 1495 1495 1494 1494 1494 1494 1494 1494 1494 1494 1494 1493 1493 1493 1492 1492
1444 1446 1448 1449 1451 1453 1455 1457 1459 1461 1463 1464 1466 1468 1469 1471 1472 1473 1474 1476 1476 1477 1478 1479 1479 1480 1482 1483 1484 1484 1485 1486 1487 1488 1489 1489 1490 1491 1491 1492 1492 1493 1494 1494 1494 1494 1494 1494 1494 1495 1495 1495 1495 1494 1494 1494 1494 1494 1494 1494 1494 1494 1494 1493 1493 1493 1493 1492 1492
1444 1446 1448 1449 1451 1453 1455 1457 1459 1461 1463 1465 1466 1468 1469 1470 1472 1473 1474 1475 1476 1477 1478 1479 1480 1481 1482 1483 1484 1484 1485 1486 1487 1488 1489 1489 1490 1491 1491 1492 1492 1493 1493 1494 1494 1494 1494 1494 1494 1494 1494 1494 1494 1494 1494 1494 1494 1494 1494 1494 1494 1494 1494 1493 1493 1493 1493 1492 1492
1444 1445 1447 1449 1451 1453 1455 1458 1460 1462 1463 1465 1466 1468 1469 1470 1471 1473 1474 1474 1476 1477 1478 1479 1480 1481 1482 1483 1484 1484 1485 1486 1487 1488 1489 1490 1490 1491 1492 1492 1492 1493 1493 1494 1494 1494 1494 1494 1494 1494 1494 1494 1494 1494 1494 1494 1494 1494 1494 1494 1494 1494 1493 1493 1493 1493 1493 1492 1492
1444 1445 1447 1449 1451 1454 1456 1458 1459 1461 1463 1464 1466 1467 1469 1470 1471 1472 1473 1474 1475 1476 1478 1479 1479 1480 1481 1483 1484 1485 1486 1487 1487 1488 1489 1490 1491 1491 1492 1492 1492 1493 1493 1493 1494 1494 1494 1494 1494 1494 1494 1494 1494 1494 1494 1493 1493 1493 1493 1493 1494 1494 1493 1493 1493 1493 1493 1492 1492
1444 1446 1448 1449 1452 1454 1456 1458 1459 1461 1463 1464 1466 1467 1469 1470 1471 1472 1474 1474 1475 1476 1477 1479 1479 1480 1482 1483 1484 1485 1486 1487 1488 1489 1489 1490 1491 1492 1492 1492 1492 1493 1493 1493 1493 1493 1493 1493 1494 1494 1494 1494 1493 1493 1493 1493 1493 1493 1493 1493 1493 1494 1493 1493 1493 1493 1492 1492 1492
1445 1447 1449 1450 1452 1454 1456 1458 1459 1461 1463 1464 1466 1467 1468 1469 1471 1472 1474 1474 1475 1476 1477 1478 1479 1480 1482 1483 1484 1485 1486 1487 1488 1489 1489 1490 1491 1492 1492 1492 1492 1492 1493 1493 1493 1493 1493 1493 1493 1493 1493 1493 1493 1493 1493 1493 1492 1492 1492 1492 1493 1493 1493 1493 1493 1493 1492 1492 1492
1446 1448 1449 1451 1453 1454 1456 1458 1460 1461 1463 1464 1465 1467 1468 1469 1471 1472 1473 1474 1475 1476 1477 1478 1479 1481 1482 1483 1484 1485 1486 1487 1488 1489 1489 1490 1491 1491 1492 1492 1492 1492 1492 1493 1493 1493 1493 1493 1493 1493 1493 1493 1493 1493 1493 1493 1492 1492 1492 1492 1492 1493 1493 1493 1493 1492 1492 1492 1492
1446 1449 1450 1452 1454 1455 1457 1458 1460 1461 1463 1464 1465 1467 1468 1469 1470 1472 1473 1474 1475 1476 1477 1479 1479 1481 1482 1483 1484 1485 1486 1487 1488 1489 1490 1490 1491 1491 1491 1492 1492 1492 1492 1493 1493 1493 1493 1493 1493 1493 1493 1493 1493 1493 1493 1493 1492 1492 1492 1492 1492 1492 1492 1493 1493 1492 1492 1492 1492
1447 1449 1451 1452 1454 1455 1457 1458 1460 1461 1463 1464 1465 1467 1468 1469 1470 1472 1473 1474 1475 1476 1478 1479 1480 1481 1482 1483 1484 1485 1486 1487 1488 1489 1490 1490 1490 1491 1491 1491 1492 1492 1492 1492 1493 1493 1493 1493 1493 1493 1493 1493 1493 1493 1493 1493 1493 1492 1492 1492 1492 1492 1492 1492 1492 1492 1492 1492 1492
Wind_Speed
31 31 30 30 29 28 27 26 25 24 23 22 22 21 20 20 20 20 20 20 19 18 17 17 17 18 21 23 25 25 26 26 26 26 25 25 25 24 24 23 23 22 22 22 22 21 20 19 19 18 17 17 17 17 18 19 20 21 22 23 24 24 24 24 23 22 21 20 19
31 31 30 30 29 28 27 26 24 23 23 22 21 20 20 20 20 20 19 19 18 17 16 16 16 17 18 20 21 22 22 23 23 23 23 22 22 22 21 21 21 21 22 22 22 21 21 20 19 19 19 18 19 20 21 22 22 21 20 20 20 19 18 16 15 14 13 13 13
31 31 30 29 29 28 27 26 25 24 23 22 20 20 20 20 20 19 19 18 17 16 15 15 15 15 16 17 18 18 19 20 20 20 20 19 19 18 18 19 19 20 20 21 21 21 21 20 20 20 20 21 21 21 20 19 17 15 15 15 14 12 11 11 12 14 14 15 16
30 30 30 29 29 29 28 27 26 24 23 22 20 20 19 20 19 19 18 17 16 15 14 15 15 15 15 15 15 16 16 17 17 17 17 16 16 16 16 17 17 18 18 18 19 19 19 19 19 20 20 20 19 17 14 13 13 14 15 15 14 13 13 14 16 17 17 17 17
29 30 29 29 29 29 28 28 26 25 23 22 21 20 20 20 19 18 17 16 15 15 15 15 15 15 15 15 15 15 15 16 16 16 16 15 15 16 16 16 15 15 16 16 16 16 17 18 18 18 18 17 15 13 13 13 15 17 18 17 16 16 17 18 19 19 18 17 17
29 29 28 28 28 28 28 27 26 25 24 22 21 20 20 20 19 18 17 16 15 15 15 16 16 16 15 15 15 15 15 15 15 15 16 16 16 16 15 14 13 13 14 14 14 15 16 17 18 17 16 14 13 13 15 16 17 18 18 17 16 16 17 18 18 17 16 15 15
28 28 28 28 28 28 27 27 26 25 24 22 21 20 20 20 19 18 17 16 15 15 16 16 16 16 16 16 16 16 16 15 15 15 15 16 16 15 13 12 12 12 12 13 13 15 16 18 18 17 15 14 14 15 16 17 17 17 16 16 16 16 16 15 15 14 13 13 13
27 27 28 28 28 27 27 26 26 25 24 22 21 20 20 19 19 18 17 17 17 17 16 16 16 16 17 17 17 17 16 16 15 15 15 15 14 14 14 13 13 13 13 13 14 15 16 17 16 16 15 15 15 15 16 17 17 17 17 16 16 15 14 13 12 11 11 12 12
27 28 28 27 27 26 26 25 25 24 23 22 21 20 19 19 18 18 18 18 18 18 17 16 16 17 17 17 17 17 17 16 16 16 15 15 14 15 15 15 14 14 14 14 13 14 14 14 14 14 15 15 16 16 17 17 18 18 18 17 16 15 13 12 11 10 11 12 13
28 28 28 27 26 26 25 24 24 23 22 21 20 19 18 18 19 19 20 20 19 17 17 17 17 17 17 18 18 17 17 17 16 16 15 15 15 15 15 14 14 13 13 12 12 12 12 12 12 13 14 15 16 17 17 18 18 18 18 18 17 15 13 11 11 11 13 14 15
29 28 28 27 26 25 24 23 23 22 21 20 19 18 18 19 21 21 20 19 18 17 17 17 18 18 18 18 18 18 17 17 16 16 16 16 15 15 14 13 13 12 11 11 11 11 12 12 12 12 13 14 15 15 16 16 17 17 16 15 15 13 12 11 12 13 14 16 17
29 28 27 26 25 24 23 23 22 21 20 19 19 19 20 22 22 21 19 18 17 17 17 18 18 19 19 18 18 18 18 18 18 18 17 16 15 13 12 11 11 10 10 11 12 12 13 13 12 12 12 12 12 13 13 13 13 12 11 10 9 9 10 11 13 14 15 17 17
28 27 27 26 25 24 23 22 21 20 19 20 21 22 23 23 21 20 18 18 18 19 19 19 19 19 19 18 18 19 19 19 19 19 18 16 13 12 11 10 10 10 11 12 13 13 13 13 12 12 11 11 11 10 10 9 9 8 8 8 9 10 11 12 14 16 17 17 17
27 27 27 26 25 24 22 21 20 20 21 22 24 24 24 23 21 20 19 20 20 20 20 20 19 19 19 19 19 19 20 20 19 18 16 14 13 12 12 12 12 13 13 14 14 13 12 11 11 10 10 10 9 8 7 7 8 9 10 10 11 12 13 15 16 17 17 17 16
27 27 27 26 25 23 22 22 21 22 23 25 25 25 24 23 21 21 21 21 21 21 21 20 19 19 19 19 19 19 18 18 17 15 14 14 14 14 14 14 14 15 15 14 13 11 10 9 9 9 8 8 7 7 7 9 10 11 12 13 13 14 15 16 17 17 16 15 13
28 27 27 26 25 24 23 23 24 25 26 26 26 25 24 23 22 21 21 21 21 20 20 19 19 19 19 19 19 19 18 16 15 14 13 14 14 14 15 15 16 15 14 12 10 9 8 7 7 7 7 6 7 7 9 10 11 12 12 13 14 14 14 15 14 14 13 12 10
28 27 27 26 25 25 25 26 26 27 27 26 26 25 24 23 22 21 21 20 20 20 19 19 18 18 18 18 18 18 17 16 14 14 13 14 14 14 15 15 15 13 11 9 7 7 7 7 7 7 6 6 7 8 9 9 10 11 12 12 13 12 12 11 11 10 9 8 8
28 27 27 26 27 27 27 27 28 27 27 26 26 25 24 23 22 21 20 19 19 19 19 19 18 17 17 16 16 16 15 15 14 14 14 13 13 13 13 13 11 9 7 6 6 6 6 6 6 6 6 6 7 8 8 9 10 11 11 11 11 10 9 8 8 7 7 7 7
28 28 28 28 28 28 28 28 28 27 27 26 26 25 23 22 21 21 19 18 17 17 18 18 17 16 15 15 14 14 14 14 14 14 14 13 12 12 10 8 7 5 5 5 6 6 6 6 5 5 5 6 7 8 9 9 10 10 10 9 8 7 7 6 6 6 6 6 6
29 28 28 28 28 29 29 29 28 28 27 26 25 24 22 21 20 19 18 17 16 16 17 17 17 16 15 15 14 14 14 14 14 14 14 13 11 9 7 5 5 5 5 5 5 5 5 4 4 5 6 7 8 9 10 10 10 9 8 7 6 5 5 5 4 5 5 5 6
29 29 28 29 29 29 30 29 29 28 27 25 24 22 21 20 19 18 17 17 17 16 16 16 16 16 16 16 15 15 15 14 14 13 12 10 9 7 6 5 6 6 6 5 5 4 4 4 5 5 6 7 8 9 10 9 8 7 5 5 4 4 4 4 4 4 4 5 6
30 30 30 30 31 31 31 30 29 27 25 24 22 20 19 18 18 18 18 18 17 16 16 16 16 17 17 17 16 15 15 14 12 11 10 9 8 8 8 8 8 7 6 5 4 4 4 4 4 5 5 6 7 7 7 6 5 4 3 3 2 2 3 3 3 4 4 5 6
32 32 32 32 32 31 30 29 27 25 23 22 21 19 18 18 19 19 19 19 18 17 16 16 17 17 17 16 15 14 13 13 12 11 10 9 10 10 10 9 8 6 5 4 4 4 3 3 3 3 4 4 5 5 4 4 3 2 2 2 2 2 2 3 3 4 5 6 7
34 34 33 32 31 30 29 27 25 24 22 21 20 19 19 19 20 20 20 19 18 17 16 17 17 17 16 15 14 13 12 11 11 11 11 11 11 10 9 8 6 5 4 3 3 3 3 3 3 3 3 4 4 3 3 2 2 1 1 1 1 2 2 3 4 5 6 7 7
35 34 32 31 29 28 26 25 24 23 22 21 21 20 20 20 21 21 21 20 19 17 17 17 17 17 16 15 13 12 12 11 12 12 11 11 10 9 7 6 4 4 3 3 3 4 3 3 3 3 4 4 3 3 2 2 2 1 1 1 2 3 4 5 6 7 8 8 9
35 33 31 29 28 26 25 24 24 23 22 22 22 22 22 21 21 21 21 20 19 18 17 17 17 16 15 14 14 13 13 13 12 12 11 9 7 6 5 5 4 4 4 4 4 4 4 4 4 4 3 3 3 3 2 2 1 1 1 2 3 4 5 6 8 9 10 10 10
34 32 30 28 26 26 25 24 24 23 23 23 23 23 23 21 21 20 20 19 19 18 17 17 17 16 15 15 14 14 13 13 12 11 8 6 5 4 4 4 4 4 5 5 5 5 4 4 4 4 4 3 3 3 2 2 1 1 2 3 4 5 6 7 7 8 9 9 10
32 31 29 27 26 26 25 25 25 24 24 24 24 24 23 21 20 19 19 19 18 18 18 17 17 16 15 15 14 14 13 12 10 8 6 5 4 4 4 4 5 5 5 5 5 5 5 5 5 5 4 4 3 3 2 1 1 2 3 4 5 6 6 7 7 7 7 8 8
31 29 28 27 27 26 26 26 26 26 26 25 25 24 23 21 19 18 18 19 19 18 18 17 16 15 15 15 14 13 12 10 8 6 5 5 5 5 5 5 6 6 6 6 6 6 6 6 6 5 5 4 3 2 2 1 2 3 4 4 5 6 6 6 7 7 7 8 9
30 29 28 28 27 27 27 27 27 27 27 26 25 24 22 21 20 20 20 20 19 18 17 16 16 15 15 14 14 12 10 8 6 5 5 5 5 6 6 6 7 8 8 8 8 7 7 7 6 5 4 3 2 1 1 2 3 4 4 5 6 6 6 7 7 8 9 10 11
29 29 29 29 29 28 28 28 28 28 27 26 24 23 22 22 22 22 21 20 19 18 17 16 16 15 15 14 12 10 8 6 6 5 5 5 6 6 7 8 9 9 10 9 9 8 7 7 6 5 3 2 1 2 2 3 4 5 6 6 7 7 7 8 8 9 10 11 12
30 29 30 30 30 30 29 29 28 28 27 26 24 24 23 23 23 22 21 20 19 18 18 17 16 15 14 12 10 8 7 6 5 6 6 6 7 8 9 10 11 11 11 10 9 8 7 6 4 3 2 2 2 3 4 5 5 6 7 7 7 8 8 8 9 10 10 11 11
30 30 31 31 31 31 30 30 29 28 27 26 25 25 24 24 23 22 21 19 19 18 18 17 16 14 13 11 9 8 7 6 6 7 8 9 9 10 11 12 12 12 11 10 9 7 6 4 3 2 2 2 3 4 4 5 6 6 7 7 7 7 8 8 8 9 10 10 10
31 32 32 32 32 32 31 30 29 28 27 26 25 25 24 24 23 22 21 20 19 19 18 16 15 13 11 10 8 8 7 7 8 9 10 11 11 12 12 12 12 11 10 9 8 6 5 3 2 2 2 3 3 4 5 5 6 6 6 7 7 7 7 8 8 8 9 9 9
33 33 33 33 32 31 30 30 29 28 27 26 26 25 24 23 22 21 21 20 19 18 17 15 14 12 11 9 8 8 8 9 11 12 13 13 12 12 12 12 11 10 9 8 6 5 3 2 2 2 3 3 4 4 5 5 5 6 6 6 6 7 7 7 8 8 8 8 8
33 33 33 33 32 31 30 29 29 28 28 27 26 25 24 22 21 21 20 19 19 18 16 15 13 12 11 10 10 10 10 12 13 14 14 13 12 11 11 10 10 9 8 7 5 4 3 2 2 3 3 4 4 4 5 5 5 6 6 6 6 7 7 7 7 7 7 7 8
33 33 32 32 31 30 30 29 29 28 28 27 26 25 24 23 22 20 19 19 18 17 16 14 13 12 12 12 13 13 14 14 15 15 15 13 11 10 9 9 9 8 7 6 4 3 3 2 3 3 4 4 4 5 5 6 6 7 7 7 7 7 7 7 7 7 7 7 8
32 31 30 30 30 30 30 29 29 28 27 26 26 24 23 22 21 20 19 18 17 16 15 15 14 14 14 14 15 16 16 16 15 15 15 13 11 10 8 8 8 7 6 5 4 3 3 2 3 3 4 4 5 5 6 6 7 8 8 8 8 8 8 8 8 7 7 8 8
30 29 28 28 29 29 29 29 28 27 27 26 25 24 23 22 21 20 19 17 16 15 15 16 16 16 16 17 17 18 18 17 15 14 14 13 11 9 8 7 7 6 6 5 4 3 3 3 3 4 4 5 5 6 7 7 7 8 8 9 9 9 9 8 8 8 8 8 8
29 28 27 27 28 28 29 28 28 27 26 25 25 24 23 22 21 20 19 17 16 16 16 17 18 18 18 18 18 18 18 17 15 14 13 12 10 9 8 6 6 6 5 5 4 4 4 4 4 5 5 5 6 6 7 7 7 7 7 8 9 9 9 9 9 8 8 8 8
28 28 27 27 27 28 28 28 28 27 26 25 24 23 22 21 20 19 19 18 17 17 18 19 19 20 20 19 18 18 17 16 15 13 12 10 10 9 7 6 6 6 6 5 5 5 5 5 5 5 6 6 6 7 7 7 7 6 6 7 7 8 9 9 8 8 8 8 8
Wind_Direction
198 197 198 200 200 201 202 204 207 208 209 208 206 205 205 206 208 212 216 220 221 221 221 219 217 213 210 210 211 213 214 216 219 222 224 226 228 230 231 232 232 231 230 230 232 234 236 238 240 242 245 247 251 253 254 255 256 259 262 263 263 263 263 265 267 269 271 273 275
197 196 197 198 200 200 200 201 202 204 205 205 205 204 203 204 206 210 214 218 221 221 220 218 214 211 209 209 210 212 213 214 217 219 222 225 227 229 230 230 229 228 229 230 232 235 236 238 239 241 243 245 248 250 251 252 253 256 259 261 262 262 265 268 273 277 280 283 285
195 195 195 196 198 198 198 197 198 199 200 200 202 201 201 201 205 209 213 217 218 218 216 212 209 206 205 205 206 207 208 210 212 215 217 220 223 224 224 224 225 227 229 231 234 235 236 238 239 241 243 245 247 248 250 251 252 255 258 260 260 262 266 272 277 281 285 287 289
194 193 194 195 196 197 197 196 195 195 196 197 197 197 197 198 203 208 211 213 213 212 208 204 202 200 200 200 199 199 200 202 204 206 209 210 211 212 214 217 221 224 228 231 233 234 236 237 239 241 242 243 244 246 248 250 255 259 262 263 265 268 273 277 281 284 288 291 293
192 192 193 194 195 196 196 195 194 193 194 195 194 194 194 196 200 205 208 208 207 204 200 197 196 194 194 192 191 189 189 191 194 195 196 196 197 201 206 211 216 221 225 228 230 232 233 235 237 238 239 241 242 244 248 254 258 261 264 267 270 273 276 279 283 286 291 295 299
190 190 191 193 194 195 195 194 194 194 194 194 193 192 192 194 198 202 203 202 199 196 193 192 191 189 186 184 183 181 181 182 184 186 187 188 190 194 200 205 210 217 222 227 229 230 232 232 233 236 239 241 243 246 250 254 258 261 265 269 274 277 279 280 283 288 295 301 305
187 187 188 190 192 193 193 193 194 194 195 194 194 193 192 194 197 198 197 194 190 189 189 188 185 181 178 177 176 175 174 175 176 179 182 184 187 189 192 195 199 206 214 221 226 229 231 232 233 235 237 240 242 247 251 256 260 264 268 274 279 282 285 287 291 297 304 310 312
185 185 186 188 190 191 192 192 193 194 194 194 194 194 194 195 195 193 189 185 185 186 186 184 179 175 173 174 174 173 171 169 170 172 176 181 182 182 184 186 190 197 207 216 223 229 234 236 236 237 238 240 244 249 254 259 263 268 273 279 284 287 291 295 301 307 312 314 314
182 182 184 186 189 190 191 192 193 194 194 194 194 195 195 194 190 185 182 181 184 185 184 179 174 171 171 173 174 175 175 173 170 171 176 182 186 189 192 196 200 207 215 221 225 230 236 240 242 242 244 246 250 254 259 263 267 272 276 281 285 288 292 297 303 308 311 313 313
179 180 182 184 187 189 190 191 193 194 194 193 193 193 191 187 183 180 180 183 184 183 179 175 172 172 172 175 177 180 182 183 182 181 184 191 197 201 204 208 212 216 221 224 226 230 237 243 247 250 254 257 260 263 267 271 274 277 280 282 284 286 290 296 302 307 310 311 311
178 179 180 182 184 186 188 188 190 191 191 190 188 185 181 178 178 180 182 183 182 178 174 172 173 175 176 179 182 185 188 190 191 193 195 198 203 206 209 212 215 218 222 227 230 235 239 244 248 252 257 263 268 271 275 278 280 282 283 284 286 290 297 304 309 311 312 311 310
178 178 179 181 182 184 185 185 186 186 185 181 177 175 175 176 178 180 181 179 175 172 170 172 174 178 181 184 186 187 188 189 192 196 200 201 202 204 206 210 213 219 225 232 236 240 243 245 246 249 254 261 268 274 277 280 282 284 287 293 302 312 319 321 319 317 314 312 311
177 177 177 177 179 181 182 182 181 178 174 170 169 172 174 175 176 177 176 174 171 170 170 172 175 178 181 184 185 185 184 186 190 194 198 200 202 205 209 213 217 221 227 233 238 241 243 244 246 249 253 260 267 272 278 284 290 298 307 317 324 327 326 322 319 316 314 313 313
176 176 175 175 176 177 177 175 172 168 165 166 169 172 173 173 174 175 174 173 172 171 171 172 174 176 179 181 183 183 183 186 190 194 198 203 208 213 217 219 221 224 227 231 235 237 239 242 246 250 254 260 265 274 285 298 309 315 319 321 322 320 317 314 313 312 312 312 311
174 174 173 173 173 173 171 167 163 162 164 167 171 172 172 172 174 176 176 174 173 173 173 173 173 175 178 181 183 185 186 188 190 194 199 206 213 218 221 223 224 224 226 227 229 232 236 241 246 251 255 259 269 284 299 308 311 311 311 310 309 309 308 307 307 307 307 308 308
172 172 171 170 169 167 163 160 160 163 167 169 170 172 173 175 177 178 177 175 174 173 173 174 173 174 176 179 184 186 188 188 189 192 198 207 214 219 222 223 223 222 221 223 227 233 240 245 250 253 258 267 281 294 300 302 301 301 300 300 301 303 304 304 304 304 305 305 308
169 169 168 166 163 161 160 160 163 167 169 169 171 173 175 178 178 178 177 175 173 172 173 174 173 172 172 175 179 182 183 183 185 191 198 206 213 218 220 219 218 217 218 224 234 242 247 249 251 254 261 271 280 287 289 291 293 294 296 298 300 303 304 304 304 304 305 307 313
166 165 163 161 160 161 162 164 166 168 169 170 172 175 177 178 177 176 175 173 173 173 174 173 172 171 171 171 173 176 178 180 185 192 198 204 208 211 211 209 209 211 218 228 236 239 239 239 242 247 255 264 271 275 279 284 288 291 293 297 301 304 305 305 305 307 310 315 321
162 161 160 160 162 164 165 167 167 167 169 171 174 176 177 177 176 173 171 170 171 174 174 173 172 173 173 172 172 173 177 182 187 192 196 199 199 199 198 198 201 206 213 217 219 219 221 225 232 242 254 264 269 274 277 281 284 287 292 297 301 302 302 303 307 313 320 326 332
160 159 159 161 163 165 167 167 167 168 171 173 175 176 175 174 173 171 169 167 168 171 173 174 175 177 177 176 175 176 180 184 189 192 193 193 190 187 186 189 194 196 193 194 197 203 211 224 240 254 264 270 274 276 279 281 283 287 291 296 296 297 299 304 313 322 329 334 339
157 158 160 163 164 167 168 170 170 171 173 174 174 172 171 170 170 169 168 167 167 169 172 175 178 180 180 180 181 182 184 186 188 188 187 185 179 175 172 175 175 173 174 179 189 204 223 240 254 264 269 273 277 280 282 284 284 286 289 291 293 296 302 312 323 330 335 339 343
157 160 163 166 168 171 172 173 173 173 172 171 169 166 164 164 165 167 167 168 168 170 174 177 179 180 181 183 186 187 186 183 180 178 176 172 169 168 168 168 166 167 173 189 212 230 241 249 256 262 269 275 280 283 285 284 283 281 283 283 289 300 313 324 332 337 341 344 347
162 165 168 170 172 174 174 174 173 171 168 165 163 161 161 161 161 163 166 169 172 175 177 178 178 178 179 182 184 183 180 174 170 167 166 166 168 168 168 168 170 176 189 211 228 236 237 235 240 248 258 266 272 275 277 275 272 268 265 267 281 307 326 337 342 344 345 346 347
167 169 170 172 173 173 173 171 169 166 163 161 161 161 161 161 160 161 165 170 175 178 178 176 175 175 176 176 175 173 170 167 167 167 166 168 170 170 170 175 184 198 213 223 219 211 206 209 216 230 241 248 252 254 253 250 248 244 248 262 288 321 339 344 344 343 343 344 345
170 170 171 171 171 170 168 166 164 162 161 161 163 165 166 164 162 163 166 170 173 175 175 174 174 173 171 168 167 166 168 170 172 171 171 174 174 172 170 179 195 211 215 204 190 186 191 202 213 222 228 232 229 226 220 216 220 234 253 287 323 342 349 348 345 342 341 341 341
170 170 169 168 167 165 163 161 161 161 162 164 167 170 170 167 165 166 168 169 169 170 172 174 173 171 169 167 168 170 171 172 172 173 176 182 181 174 170 177 193 201 196 186 183 185 190 197 205 209 209 206 201 198 195 197 204 240 314 340 349 352 354 355 351 347 344 342 340
169 168 167 165 163 161 160 160 161 163 164 166 169 171 171 168 166 167 168 167 167 168 171 174 173 170 170 172 174 175 175 174 173 175 181 185 179 170 171 182 191 191 185 180 179 181 182 183 185 184 182 179 178 178 177 176 160 23 4 1 358 356 356 356 355 351 347 342 337
168 167 165 163 160 159 160 162 164 165 166 167 169 171 170 168 167 168 169 168 168 169 171 171 171 171 173 177 180 182 181 178 175 175 178 177 172 174 182 190 189 184 177 172 170 169 169 167 164 162 159 157 155 152 143 120 61 22 8 2 358 356 354 351 348 343 336 329 323
166 164 162 160 159 160 162 164 166 167 167 168 169 170 170 169 169 170 171 170 169 169 169 169 170 174 178 182 185 187 184 178 173 171 172 175 179 185 190 192 185 175 167 162 159 157 155 153 151 147 144 140 134 125 105 62 25 8 0 355 351 348 344 340 334 327 319 313 311
164 163 161 160 160 161 164 166 167 167 167 168 170 172 173 172 171 171 171 170 169 169 169 171 175 179 183 187 190 188 184 176 171 171 175 180 184 188 190 185 174 164 157 153 151 149 147 145 142 138 133 127 116 92 45 15 1 354 348 344 340 336 332 327 321 315 312 312 315
163 162 161 161 161 163 165 168 168 167 166 167 170 173 173 172 170 169 169 169 168 169 173 179 183 185 188 191 191 188 183 178 173 171 173 177 180 182 179 172 163 155 150 147 145 143 142 139 136 132 124 110 76 29 6 356 348 343 339 335 333 330 327 325 322 320 321 324 330
164 164 163 163 163 165 167 169 169 168 167 167 169 171 171 169 167 167 168 169 169 171 176 183 186 187 188 189 188 185 181 177 171 166 164 167 170 170 166 161 154 148 145 143 141 140 138 134 130 122 104 69 29 6 355 347 341 337 335 332 331 331 331 332 332 334 337 342 348
165 165 165 165 165 166 168 170 170 169 167 166 167 167 167 166 165 166 167 169 172 174 178 183 186 187 186 185 182 179 175 170 164 158 156 157 159 160 159 155 148 144 141 139 138 136 133 128 119 102 68 32 10 357 349 341 337 334 333 333 335 338 341 344 347 350 353 357 1
167 167 167 167 167 167 168 169 169 168 166 164 164 165 165 166 166 167 168 171 174 177 180 183 185 185 183 181 179 174 168 163 158 153 150 151 153 155 154 150 144 140 137 136 134 131 127 117 100 68 35 12 359 350 344 338 335 334 335 338 343 349 354 359 2 4 6 8 10
168 168 168 168 168 168 168 168 168 167 166 164 164 165 167 168 169 170 172 175 178 179 181 183 184 183 179 175 172 167 161 156 152 148 146 147 150 152 151 146 140 136 134 132 129 125 114 97 65 34 15 2 354 348 342 339 336 338 341 347 354 1 6 10 13 14 16 18 20
170 170 170 169 169 168 167 167 166 166 166 165 166 167 168 170 171 173 176 179 180 180 180 180 180 178 173 166 161 157 154 152 148 145 143 144 147 148 146 141 136 132 129 126 121 112 94 67 38 16 6 0 355 352 347 345 344 347 351 358 4 11 16 19 21 23 24 27 28
171 171 171 170 169 167 167 166 166 165 166 166 168 169 170 170 171 174 178 181 181 180 178 176 173 169 164 158 153 150 149 148 147 144 142 142 143 144 142 137 132 128 123 119 110 99 77 50 30 15 9 5 2 358 356 354 353 355 357 2 8 17 23 27 28 29 31 34 34
171 172 172 170 168 167 166 166 166 166 166 167 168 169 171 171 171 172 176 180 180 178 175 171 166 162 158 155 152 149 146 145 145 144 143 141 141 140 138 133 128 123 117 111 102 89 70 50 36 26 18 13 10 8 5 2 0 359 359 1 8 18 28 34 35 36 37 38 38
171 172 172 170 168 167 167 167 167 168 168 168 168 169 170 171 171 171 174 178 179 176 171 165 160 157 155 154 152 149 147 146 145 145 144 142 140 138 134 130 123 118 112 105 98 87 73 59 49 39 30 23 19 16 13 10 6 4 2 3 8 17 30 39 42 43 42 41 40
171 171 171 169 168 167 167 168 168 169 169 169 169 169 170 171 171 171 172 173 174 171 166 160 156 154 154 154 153 150 149 148 147 147 145 142 138 135 131 126 119 113 109 103 97 88 77 67 57 49 39 31 26 23 19 15 13 11 11 10 12 20 31 41 46 48 47 44 41
169 169 169 168 168 168 168 168 168 168 169 170 169 170 171 173 173 172 170 169 168 165 160 156 154 154 154 155 155 153 151 150 149 147 144 139 134 132 128 124 118 112 108 102 96 88 79 70 62 53 44 37 31 28 25 21 19 19 19 19 20 26 33 43 49 52 50 46 41